Location: Home
(42.5358°N, 72.7383°W)
Time: 05:53:47
(UTC-05:00)

Courier 1B - Pass Details

Date: 02 December 2021
Orbit: 962 x 1209 km, 28.3° (Epoch: 25 January)

Event Time Altitude Azimuth Distance (km) Brightness Sun altitude
Rises 21:22:55 0° 254° (WSW) 3,806 11.0 -54.8°
Enters shadow 21:23:34 - 251° (WSW) 3,625 10.8 -54.9°
Reaches altitude 10° 21:27:08 10° 231° (SW) 2,797 - -55.5°
Maximum altitude 21:30:27 14° 201° (SSW) 2,466 - -56.1°
Drops below altitude 10° 21:33:41 10° 171° (S) 2,727 - -56.6°
Sets 21:37:43 0° 147° (SSE) 3,644 - -57.3°
